Location: Colle San Luigi
(43.5500°N, 13.4167°E)
Time: 01:58:42
(UTC+00:00)

ATLAS 2AS CENTAUR R/B - Pass Details

Date: 09 April 2020
Orbit: 931 x 1280 km, 63.7° (Epoch: 31 May)

Event Time Altitude Azimuth Distance (km) Brightness Sun altitude
Rises 19:58:43 0° 316° (NW) 4,126 7.2 -23.0°
Reaches altitude 10° 20:01:58 10° 306° (NW) 3,107 6.2 -23.5°
Maximum altitude 20:08:00 28° 251° (WSW) 1,962 4.3 -24.4°
Enters shadow 20:12:56 13° 199° (SSW) 2,687 4.6 -25.0°
